Regional Weather Roundup
Issued by NWS Midland/Odessa, TX

Skip options and go directly to product.
Home | Oldest Version | Previous Version | Current Version | All | Text Only | Save Text | Print | Product List | Glossary Off

Skip product version selection by date and time.   

094
ASUS44 KMAF 082110
RWRMAF
MIDLAND AREA WEATHER ROUNDUP
NATIONAL WEATHER SERVICE MIDLAND TX
300 PM CST MON FEB 08 2016

...IN SOUTHWEST TEXAS AND SOUTHEAST NEW MEXICO...

CITY           SKY/WX    TMP DP  RH WIND       PRES   REMARKS
ALPINE         SUNNY     51  18  27 CALM      30.43F
ANDREWS        FAIR      52  12  20 NW3       30.41F
ARTESIA        SUNNY     50  14  23 SE8G20    30.39F
BIG SPRING     SUNNY     55  17  22 NW12      30.43F
CARLSBAD       SUNNY     51  11  20 SE10G16   30.38F
DRYDEN           N/A     58  12  16 VRB6      30.37F
FORT STOCKTON  SUNNY     51  12  21 MISG      30.40F
GUAD PASS      SUNNY     50  11  20 SW12      30.36F
HOBBS          SUNNY     50   9  18 S3        30.41F
MARFA          SUNNY     52  15  23 E5        30.38F
MIDLAND AIRPK  SUNNY     54  13  19 NW7       30.42F
MIDLAND INTL   SUNNY     54  13  19 NW8       30.41F
ODESSA         SUNNY     54  12  18 VRB6      30.41F
PECOS          SUNNY     53  12  19 NW3       30.41F
PRESIDIO       FAIR      61  17  18 E12       30.34F
SEMINOLE       SUNNY     52  14  22 N8        30.42F
SNYDER           N/A     55  13  19 NW12G17   30.38F
WINK           SUNNY     52  12  20 CALM      30.40F
$$
...OTHER STATIONS IN TEXAS...

CITY           SKY/WX    TMP DP  RH WIND       PRES   REMARKS
ABILENE        SUNNY     57  12  17 N22G31    30.35F
AMARILLO       SUNNY     53  19  26 NW18G30   30.35F
AUSTIN         MOSUNNY   64  15  15 NW18G26   30.30F
BROWNSVILLE    CLOUDY    63  47  55 N17G25    30.32F
CORPUS CHRISTI PTSUNNY   69  21  16 N16       30.31F
DALLAS FTW     SUNNY     57   8  14 NW23G38   30.25F
DEL RIO        MOSUNNY   61  14  16 NW10      30.38F
EL PASO        MOSUNNY   57  15  19 SE3       30.33F
HOUSTON INT    MOSUNNY   63  11  13 NW22G36   30.23F
LUBBOCK        MOSUNNY   55  17  22 NW13      30.37F
SAN ANGELO     SUNNY     59  14  17 N10G22    30.39F
SAN ANTONIO    PTSUNNY   63  18  17 N14G24    30.33F
WACO           SUNNY     60  10  14 NW21G33   30.29F
WICHITA FALLS  NOT AVBL
$$
...OTHER LOCATIONS IN NEW MEXICO...

CITY           SKY/WX    TMP DP  RH WIND       PRES   REMARKS
ALAMAGORDO     SUNNY     55  18  22 NW5       30.34F
ALBUQUERQUE    SUNNY     56  17  21 N5        30.36F
CANNON AFB     SUNNY     49  15  26 VRB3      30.37F
CLOVIS         SUNNY     48  18  29 W8        30.39F
HOLLOMAN AFB   SUNNY     57  19  22 CALM      30.32F
ROSWELL        SUNNY     50  15  24 VRB7      30.38F
RUIDOSO          N/A     57  10  15 N12G17    30.37S
SANTA FE       SUNNY     55  15  20 N13G22    30.36F
TRUTH OR CONSE SUNNY     59  15  18 CALM      30.32F
TUCUMCARI      SUNNY     51  15  23 VRB3      30.37F
$$

USA.gov is the U.S. government's official web portal to all federal, state and local government web resources and services.